Regional Weather Roundup
Issued by NWS

Home | Current Version | Previous Version | Text Only | Print | Product List | Glossary Off
Versions: 1 2 3 4 5 6 7 8 9 10 11 12 13 14 15 16 17 18 19 20 21 22 23 24 25 26 27 28 29 30 31 32 33 34 35 36 37 38 39 40 41 42 43 44 45 46 47 48 49 50

000
ASUS43 KLMK 031302
RWRKY
KENTUCKY REGIONAL WEATHER ROUNDUP
NATIONAL WEATHER SERVICE LOUISVILLE KY
800 AM EST SAT DEC 03 2016

NOTE "FAIR" INDICATES FEW OR NO CLOUDS BELOW 12,000 FEET
WITH NO SIGNIFICANT WEATHER AND/OR OBSTRUCTIONS TO VISIBILITY.

KYZ001>023-026-027-061>063-070>075-031400-
WESTERN AND SOUTH CENTRAL KENTUCKY

CITY           SKY/WX    TMP DP  RH WIND       PRES   REMARKS
PADUCAH        PTCLDY    35  31  85 NE3       30.36F
HENDERSON      PTCLDY    28  25  86 CALM      30.39R
OWENSBORO      CLOUDY    30  29  96 CALM      30.40R
HOPKINSVILLE   NOT AVBL
BOWLING GREEN  CLOUDY    31  27  85 CALM      30.38R
GLASGOW        NOT AVBL
$$

KYZ024-025-028>034-038-045-046-053-031400-
NORTH CENTRAL KENTUCKY

CITY           SKY/WX    TMP DP  RH WIND       PRES   REMARKS
LOUISVILLE/SDF CLOUDY    41  29  62 CALM      30.37R
LOUISVILLE/LOU CLOUDY    40  31  70 VRB3      30.37R
FORT KNOX      CLOUDY    38  32  79 NW2       30.35R
$$

KYZ035>037-039>044-047>052-055>060-089>105-031400-
NORTHEAST KENTUCKY

CITY           SKY/WX    TMP DP  RH WIND       PRES   REMARKS
LEXINGTON      CLOUDY    38  31  76 CALM      30.35R
COVINGTON      CLOUDY    37  34  89 W5        30.34R WCI  33
FRANKFORT      CLOUDY    39  31  72 CALM      30.34R
$$

KYZ054-064>069-076>088-106>120-031400-
SOUTHEAST KENTUCKY

CITY           SKY/WX    TMP DP  RH WIND       PRES   REMARKS
JACKSON        CLOUDY    35  30  82 CALM      30.32S
LONDON         CLOUDY    33  29  85 CALM      30.35R
SOMERSET       CLOUDY    32  32 100 CALM      30.38R FOG
MIDDLESBORO    CLOUDY    31  31  98 CALM      30.36R
MONTICELLO     CLOUDY    26  24  92 W7        30.38R FOG     WCI  18
$$




USA.gov is the U.S. government's official web portal to all federal, state and local government web resources and services.